Regional Weather Roundup
Issued by NWS State College, PA

Home | Current Version | Previous Version | Text Only | Print | Product List | Glossary Off
Versions: 1 2 3 4 5 6 7 8 9 10 11 12 13 14 15 16 17 18 19 20 21 22 23 24 25 26 27 28 29 30 31 32 33 34 35 36 37 38 39 40 41 42 43 44 45 46 47 48 49 50

000
ASUS41 KCTP 310510
RWRCTP

REGIONAL WEATHER ROUNDUP
NATIONAL WEATHER SERVICE STATE COLLEGE PA
100 AM EDT TUE MAY 31 2016

Note: "fair" indicates few or no clouds below 12,000 feet with no
significant weather and/or obstructions to visibility.

* = STATION THAT DOES NOT REPORT PRECIPITATION /E.G. RAIN...SNOW...ETC/
    THUNDER OR FOG.

PAZ002>004-007>009-013>016-020>023-029>032-310600-
WESTERN PENNSYLVANIA

CITY           SKY/WX    TMP DP  RH WIND       PRES   REMARKS
ERIE           CLEAR     64  56  75 S3        29.98F
MEADVILLE      CLEAR     60  55  83 CALM      30.01F
FRANKLIN*      CLEAR     57  52  82 CALM      30.04S
NEW CASTLE     FAIR      57  54  89 CALM      30.01S
BEAVER COUNTY  NOT AVBL
BUTLER*        CLEAR    N/A N/A N/A NE3       30.03S
PITTSBURGH INT CLEAR     66  56  70 CALM      30.00S
PITTSBURGH     CLEAR     71  53  52 CALM      30.00S
INDIANA*       CLEAR     59  57  94 CALM      30.04F
LATROBE        CLEAR     59  59 100 CALM      30.01F
WASHINGTON CO* CLEAR     57  54  88 CALM      30.01S
$$

PAZ004>006-010>012-017>019-024>028-033>037-041-042-045-046-049>053-310600-
CENTRAL PENNSYLVANIA

CITY           SKY/WX    TMP DP  RH WIND       PRES   REMARKS
BRADFORD       CLEAR     52  50  93 CALM      30.04S
DUBOIS         CLEAR     61  51  70 CALM      30.02F
CLEARFIELD     CLEAR     60  54  80 CALM      30.02S
JOHNSTOWN      CLEAR     67  49  52 CALM      30.04F
ALTOONA        CLEAR     63  60  90 CALM      30.01S
STATE COLLEGE  CLEAR     67  56  68 CALM      30.00S
WILLIAMSPORT   CLEAR     65  61  87 N3        29.97R
SELINSGROVE    CLOUDY    63  62  97 CALM      29.97F FOG
FT INDIANTOWN  CLOUDY    64  64 100 NE1       29.96S FOG
CAPITAL CITY   MOCLDY    67  65  93 W3        29.96S
HARRISBURG     MOCLDY    69  65  86 NW5       29.95S
YORK           MOCLDY    67  65  93 CALM      29.96S
$$

PAZ038>040-043-044-047-048-054-055-060>062-067>071-310600-
EASTERN PENNSYLVANIA

CITY           SKY/WX    TMP DP  RH WIND       PRES   REMARKS
SCRANTON       CLOUDY    63  61  93 CALM      29.97F
MOUNT POCONO   MOCLDY    61  59  93 W3        30.00F
ALLENTOWN      MOCLDY    68  63  84 CALM      29.96S
QUAKERTOWN*    CLOUDY    70  70 100 CALM      29.97F
READING        CLOUDY    68  65  90 CALM      29.96S
LANCASTER      MOCLDY    67  65  93 CALM      29.96S
COATESVILLE    CLOUDY    70  68  94 CALM      29.99S
POTTSTOWN      CLOUDY    71  68  90 CALM      29.97F
BLUE BELL      MOCLDY    70  68  94 SW5       29.95S
DOYLESTOWN     CLOUDY    70  68  93 SW6       29.95S
WILLOW GROVE   NOT AVBL
NORTH PHILA    CLOUDY    73  69  87 SW7       29.96F
PHILADELPHIA   CLOUDY    71  67  87 SW7       29.95F
$$




USA.gov is the U.S. government's official web portal to all federal, state and local government web resources and services.